Find Local Weather

World > North America > United States > Florida

Miami Beach, Florida Regional Weather

Lat: 25.81N, Lon: 80.13W
Wx Zone: FLZ173
Warning FLW WEATHER ALERT - (More Info. Click Here) Warning
Feedback
Expires:201807201200;;765840
ASUS42 KTBW 201117
RWRFL 
FLORIDA REGIONAL WEATHER ROUNDUP
NATIONAL WEATHER SERVICE TAMPA BAY RUSKIN FL
700 AM EDT FRI JUL 20 2018

NOTE: "FAIR" INDICATES FEW OR NO CLOUDS BELOW 12,000 FEET WITH NO
SIGNIFICANT WEATHER AND/OR OBSTRUCTIONS TO VISIBILITY.


FLZ067-068-071>074-168-172>174-201200-
SOUTHEAST FLORIDA 
  
CITY           SKY/WX    TMP DP  RH WIND       PRES   REMARKS
W PALM BEACH   MOCLDY    79  76  90 CALM      29.99R                  
BOCA RATON     CLEAR     79  75  89 CALM      29.98                   
FT LAUDER-EXEC FAIR      80  76  87 CALM      29.99R                  
FT LAUDERDALE  FAIR      81  77  88 S3        29.99R                  
POMPANO BEACH  FAIR      82  74  76 CALM      29.99R                  
PEMBROKE PINES FAIR      81  75  82 SE3       30.00R                  
OPA LOCKA      FAIR      79  76  90 S3        30.00R                  
MIAMI          MOCLDY    79  76  90 S3        29.99R                  
WEST KENDALL   FAIR      78  75  90 CALM      30.00R                  
HOMESTEAD      FAIR      76  74  93 CALM      29.99R                  

STATION/POSITION SKY/WX   TEMP    WIND        PRES    WAVE   SWELL
                          AIR SEA DIR/SP/G            HT/PER HT/PER
                          (F)     (DEG/KT/KT) (MB)    (FT/S) (FT/S)
PORT EVERGLADES            82     180/  3/  4 1015.2R
VIRGINIA KEY               84 90  220/  6/  8 1015.1R
LAKE WORTH                 81 83  230/  4/  5 1016.2R
FOWEY ROCKS                84 86  210/  8/  9 1016.4R
SETTLEMENT POINT           82     180/ 15/ 17 1016.0R

$$

  

SKY/WX - Weather  TMP - Temperature  DP - Dewpoint  RH - Relative Humidity
WIND - Wind Direction/Speed PRES - Barometric Pressure